Location: San Antonio
(29.4240°N, 98.4930°W)
Time: 09:19:10
(UTC-05:00)

ACS3 Solar Sail - Pass Details

Date: 18 June 2024
Orbit: 992 x 1023 km, 97.4° (Epoch: 11 July)

Event Time Altitude Azimuth Distance (km) Brightness Sun altitude
Exits shadow 22:43:12 38° 102° (ESE) 1,471 5.3 -22.9°
Maximum altitude 22:44:25 43° 73° (ENE) 1,380 5.4 -23.1°
Drops below altitude 10° 22:50:13 10° 5° (N) 2,765 7.7 -23.9°
Sets 22:52:49 0° 359° (N) 3,714 8.6 -24.3°
